FLOCK 1C 6

导读

FLOCK 1C 6是美国Planet公司研制的一颗小型遥感卫星,属于鸽群(Flock)星座的1C批次卫星,于2014年6月19日发射升空。该卫星配备Planet Scope-1相机,可获取分辨率2.7米的多光谱遥感影像,运行于约420公里近地轨道,主要用于对地观测,为商业遥感、地理测绘等领域提供数据服务,目前已退役。

基本信息
目录编号:
40036
目录名称:
FLOCK 1C 6
国际标识:
2014-033AC
轨道中心:
EARTH
卫星名称:
FLOCK 1C 6
卫星全名:
--
卫星状态:
已陨落 最后检测时间 2025-03-18
发射日期:
2014-06-19 UTC
国别 :
美国 (US)
星等 :
--
轨道信息
数据来源 国际轨道数据
星历时间: 2025-03-14T03:43:00+0800
轨道信息已过期500天
半长轴: 6580.201km
偏心率: 0.0009087
轨道倾角: 98.055°
近地点辐角 188.364°
升交点赤经 93.569°
平近点角 171.750°
近地点: 196.086km
远地点: 208.046km
周期: 88.536分钟
每日圈数: 16.264627
详细信息
使用方式:
暂无